Creek Data

    Home     View Charts     View Raw Data     Messages

ID Distance Battery Voltage Battery Current Internal Temp Internal Humidity External Temp Solar Input rssi snr Time Stamp Record
32896 13.7 3.79 -5 48 38 49 0.1 -82 8 02/20/2025 05:15 AM 14574
32895 13.8 3.84 -5 48 38 49 0 -80 7 02/20/2025 05:00 AM 14573
32894 13.8 3.79 -5 48 38 50 0 -82 7 02/20/2025 04:45 AM 14572
32893 13.7 3.84 -5 49 38 50 0 -82 7 02/20/2025 04:30 AM 14571
32892 13.7 3.79 -5 49 38 50 0 -79 7 02/20/2025 04:15 AM 14570
32891 13.7 3.80 -5 49 38 50 0 -81 8 02/20/2025 04:00 AM 14569
32890 13.6 3.80 -5 49 38 50 0 -79 7 02/20/2025 03:45 AM 14568
32889 13.7 3.80 -5 49 38 50 0 -78 6 02/20/2025 03:30 AM 14567
32888 13.7 3.80 -5 50 38 50 0 -80 5 02/20/2025 03:15 AM 14566
32887 13.7 3.80 -5 50 38 50 0 -80 7 02/20/2025 03:00 AM 14565
32886 13.7 3.80 -5 49 37 50 0 -81 7 02/20/2025 02:45 AM 14564
32885 13.7 3.80 -5 49 38 50 0 -80 6 02/20/2025 02:30 AM 14563
32884 13.6 3.80 -5 48 38 50 0 -81 7 02/20/2025 02:15 AM 14562
32883 13.4 3.80 -5 48 38 49 0 -80 7 02/20/2025 02:00 AM 14561
32882 13.6 3.85 -5 47 38 49 0 -83 7 02/20/2025 01:45 AM 14560
32881 13.6 3.80 -5 46 38 48 0 -82 7 02/20/2025 01:30 AM 14559
32880 13.6 3.80 -5 46 38 47 0 -81 7 02/20/2025 01:15 AM 14558
32879 13.6 3.80 -5 47 38 48 0 -81 7 02/20/2025 01:00 AM 14557
32878 13.6 3.80 -5 47 38 48 0 -80 7 02/20/2025 12:45 AM 14556
32877 13.6 3.85 -5 47 38 49 0 -81 6 02/20/2025 12:30 AM 14555
32876 13.6 3.80 -5 47 38 48 0 -80 7 02/20/2025 12:15 AM 14554
32875 13.6 3.85 -5 47 38 48 0 -79 8 02/20/2025 12:00 AM 14553
32874 13.6 3.80 -5 48 38 49 0 -81 6 02/19/2025 11:45 PM 14552
32873 13.6 3.85 -5 48 38 49 0.1 -81 6 02/19/2025 11:30 PM 14551
32872 13.6 3.80 -5 48 38 49 0 -79 7 02/19/2025 11:15 PM 14550